Flag for U.S.A. Weather past 2 weeks in Elizabeth, New Jersey, U.S.A.

Now
79 °F

Passing clouds.


Feels Like: 82 °F
Forecast: 78 / 86 °F
Wind: 7 mph from Southwest

Location: Newark International Airport

Current Time: Jul 8, 2015 at 12:48:09 AM

Latest Report: Jul 7, 2015 at 11:51 PM


Visibility: 10 mi

Pressure: 29.96 "Hg

Humidity: 77%

Dew point: 71 °F

Location of ElizabethLocation

Historic Weather in Elizabeth — Graph

°F

Elizabeth temperature yesterday

Maximum temperature yesterday: 88 °F (at 12:51 PM)
Minimum temperature yesterday: 74 °F (at 3:51 AM)
Average temperature yesterday: 81 °F

Past Weeks' High & Low Weather Summary

 TemperatureHumidityPressure
High92 °F (Jun 23, 4:51 PM)97% (Jun 28, 1:51 AM)30.16 "Hg (Jun 28, 1:51 AM)
Low61 °F (Jun 27, 8:51 PM)31% (Jun 25, 12:51 PM)29.65 "Hg (Jun 28, 5:51 AM)
Average75 °F64%29.94 "Hg
* Reported Jun 22 10:51 PM — Jul 7 10:51 PM, Elizabeth, Weather by CustomWeather, © 2015

Note: Actual official high and low records may vary slightly from our data, if they occured in-between our weather recording intervals... More about our weather records

Advertising

Elizabeth weather history for previous 24 hours

 ConditionsComfort  
Time TempWeatherWind HumidityBarometerVisibility
10:51 PM
Tue, Jul 7
81 °FPassing clouds.12 mph69%29.96 "Hg10 mi
9:51 PM82 °FPassing clouds.8 mph65%29.96 "Hg10 mi
8:51 PM83 °FScattered clouds.7 mph65%29.95 "Hg10 mi
7:51 PM82 °FBroken clouds.8 mph67%29.94 "Hg10 mi
6:51 PM88 °FBroken clouds.16 mph52%29.93 "Hg10 mi
5:51 PM87 °FBroken clouds.16 mph57%29.93 "Hg10 mi
4:51 PM86 °FBroken clouds.7 mph63%29.93 "Hg10 mi
3:51 PM86 °FBroken clouds.9 mph63%29.94 "Hg10 mi
2:51 PM88 °FPartly sunny.6 mph57%29.96 "Hg10 mi
1:51 PM88 °FPartly sunny.12 mph52%29.97 "Hg10 mi
12:51 PM88 °FBroken clouds.10 mph55%29.98 "Hg10 mi
11:51 AM85 °FPartly sunny.12 mph63%30.01 "Hg10 mi
10:51 AM84 °FBroken clouds.7 mph65%30.02 "Hg10 mi
9:51 AM82 °FPartly sunny.13 mph72%30.03 "Hg10 mi
8:51 AM80 °FPartly sunny.9 mph79%30.03 "Hg10 mi
7:51 AM78 °FPartly sunny.6 mph84%30.03 "Hg10 mi
6:51 AM77 °FPartly sunny.5 mph85%30.03 "Hg9 mi
5:51 AM76 °FPassing clouds.5 mph88%30.03 "Hg8 mi
4:51 AM75 °FPartly cloudy.5 mph90%30.03 "Hg7 mi
3:51 AM74 °FPartly cloudy.7 mph94%30.04 "Hg8 mi
2:51 AM75 °FMostly cloudy.5 mph88%30.04 "Hg10 mi
2:03 AM75 °FPartly cloudy.3 mph83%30.05 "Hg10 mi
1:51 AM75 °FPartly cloudy.5 mph85%30.05 "Hg10 mi
12:51 AM75 °FMostly cloudy.No wind85%30.07 "Hg10 mi
Weather by CustomWeather, © 2015

See weather overviewHow to use our weather pages